1507708800.51,46896,10.81,73804.3,0.47,-0.41,-0.29,0,*45
1507708801.7,46897,10.81,73810.3,0.45,-0.41,-0.37,0,*49
1507708802.88,46898,10.81,73808.0,0.45,-0.37,-0.41,0,*46
1507708804.05,46899,10.81,73814.0,0.45,-0.41,-0.29,0,*48
1507708805.23,46900,10.81,73796.5,0.45,-0.41,-0.41,0,*47
1507708806.43,46901,10.81,73796.8,0.47,-0.49,-0.49,0,*44
1507708807.64,46902,10.81,73804.5,0.47,-0.49,-0.41,0,*4F
1507708808.83,46903,10.81,73804.8,0.47,-0.49,-0.49,0,*46
1507708810.03,46904,10.81,73804.0,0.47,-0.49,-0.49,0,*41
1507708811.21,46905,10.81,73800.0,0.45,-0.49,-0.49,0,*42
1507708812.38,46906,10.81,73800.5,0.45,-0.49,-0.41,0,*49
1507708813.58,46907,10.81,73808.0,0.47,-0.49,-0.49,0,*42
1507708814.78,46908,10.81,73800.0,0.47,-0.49,-0.49,0,*4D
1507708815.98,46909,10.81,73806.5,0.47,-0.53,-0.53,0,*4C
1507708817.18,46910,10.81,73802.5,0.47,-0.53,-0.49,0,*4F
1507708818.38,46911,10.81,73800.8,0.47,-0.49,-0.49,0,*45
1507708819.58,46912,10.81,73788.0,0.47,-0.49,-0.49,0,*46
1507708820.78,46913,10.81,73786.0,0.47,-0.53,-0.49,0,*4C
1507708821.98,46914,10.81,73786.5,0.47,-0.53,-0.41,0,*43
1507708823.18,46915,10.81,73794.0,0.47,-0.49,-0.49,0,*41
1507708824.35,46916,10.81,73806.3,0.45,-0.53,-0.61,0,*41
1507708825.53,46917,10.81,73804.0,0.45,-0.53,-0.49,0,*4A
1507708826.73,46918,10.81,73802.8,0.47,-0.53,-0.49,0,*47
1507708827.9,46919,10.81,73794.8,0.45,-0.49,-0.53,0,*44
1507708829.07,46920,10.81,73776.3,0.45,-0.61,-0.61,0,*45
1507708830.24,46921,10.81,73766.3,0.45,-0.53,-0.53,0,*44
1507708831.41,46922,10.81,73768.8,0.45,-0.73,-0.65,0,*40
1507708832.61,46923,10.81,73778.8,0.47,-0.65,-0.61,0,*40
1507708833.78,46924,10.81,73778.5,0.45,-0.73,-0.61,0,*42
1507708834.97,46925,10.81,73778.3,0.47,-0.61,-0.53,0,*43
1507708836.17,46926,10.81,73780.3,0.47,-0.53,-0.53,0,*41
1507708837.37,46927,10.81,73780.5,0.47,-0.53,-0.53,0,*40
1507708838.54,46928,10.81,73782.8,0.45,-0.49,-0.41,0,*45
1507708839.74,46929,10.81,73782.3,0.47,-0.49,-0.49,0,*4E
1507708840.94,46930,10.81,73786.5,0.47,-0.53,-0.49,0,*4D
1507708842.14,46931,10.81,73770.8,0.47,-0.53,-0.53,0,*47
1507708843.33,46932,10.81,73778.0,0.47,-0.61,-0.61,0,*44
1507708844.53,46933,10.81,73782.0,0.47,-0.53,-0.53,0,*45
1507708845.7,46934,10.81,73782.0,0.45,-0.53,-0.49,0,*4B
1507708846.9,46935,10.81,73782.5,0.47,-0.49,-0.49,0,*43
1507708848.1,46936,10.81,73780.8,0.47,-0.49,-0.49,0,*40
1507708849.3,46937,10.81,73778.5,0.47,-0.41,-0.49,0,*49
1507708850.51,46938,10.81,73782.0,0.47,-0.49,-0.41,0,*46
1507708851.69,46939,10.81,73788.3,0.45,-0.49,-0.41,0,*45
1507708852.86,46940,10.81,73790.3,0.45,-0.49,-0.41,0,*4B
1507708854.06,46941,10.81,73788.3,0.47,-0.49,-0.41,0,*48
1507708855.24,46942,10.81,73788.0,0.45,-0.53,-0.49,0,*4A
1507708856.42,46943,10.81,73792.3,0.45,-0.49,-0.41,0,*48
1507708857.59,46944,10.81,73796.3,0.45,-0.49,-0.49,0,*47
1507708858.79,46945,10.81,73806.0,0.47,-0.49,-0.49,0,*44
1507708860.0,46946,10.81,73802.5,0.47,-0.49,-0.41,0,*4F
1507708861.2,46947,10.81,73802.8,0.47,-0.53,-0.49,0,*4D
1507708862.37,46948,10.81,73804.0,0.45,-0.49,-0.49,0,*4B
1507708863.55,46949,10.81,73804.8,0.45,-0.49,-0.41,0,*42
1507708864.73,46950,10.81,73802.5,0.45,-0.41,-0.41,0,*42
1507708865.94,46951,10.81,73802.8,0.47,-0.41,-0.41,0,*41
1507708867.15,46952,10.81,73804.3,0.47,-0.41,-0.49,0,*4A
1507708868.35,46953,10.81,73806.3,0.47,-0.41,-0.49,0,*4B
1507708869.54,46954,10.81,73800.0,0.45,-0.41,-0.41,0,*46
1507708870.74,46955,10.81,73796.5,0.47,-0.49,-0.41,0,*4D
1507708871.92,46956,10.81,73802.3,0.45,-0.41,-0.41,0,*44
1507708873.1,46957,10.81,73804.8,0.45,-0.37,-0.41,0,*44
1507708874.31,46958,10.81,73804.0,0.47,-0.49,-0.41,0,*40
1507708875.5,46959,10.81,73804.8,0.47,-0.49,-0.37,0,*40
1507708876.71,46960,10.81,73804.8,0.47,-0.49,-0.41,0,*4B
1507708877.91,46961,10.81,73808.8,0.47,-0.37,-0.41,0,*43
1507708879.09,46962,10.81,73804.0,0.45,-0.49,-0.41,0,*4B
1507708880.27,46963,10.81,73800.8,0.45,-0.49,-0.41,0,*4A
1507708881.47,46964,10.81,73798.3,0.47,-0.49,-0.41,0,*4F
1507708882.65,46965,10.81,73796.8,0.45,-0.49,-0.41,0,*4C
1507708883.85,46966,10.81,73794.5,0.47,-0.49,-0.41,0,*4D
1507708885.06,46967,10.81,73794.0,0.47,-0.41,-0.41,0,*44
1507708886.26,46968,10.81,73788.0,0.47,-0.53,-0.41,0,*48
1507708887.47,46969,10.81,73790.0,0.47,-0.49,-0.41,0,*42
1507708888.66,46970,10.81,73790.3,0.47,-0.49,-0.49,0,*42
1507708889.86,46971,10.81,73792.0,0.47,-0.49,-0.49,0,*43
1507708891.06,46972,10.81,73792.0,0.47,-0.49,-0.41,0,*48
1507708892.27,46973,10.81,73806.0,0.47,-0.53,-0.49,0,*4A
1507708893.47,46974,10.81,73812.3,0.47,-0.53,-0.49,0,*4D
1507708894.67,46975,10.81,73798.5,0.47,-0.49,-0.49,0,*47
1507708895.87,46976,10.81,73798.5,0.47,-0.41,-0.49,0,*4C
1507708897.08,46977,10.81,73804.0,0.47,-0.53,-0.41,0,*46
1507708898.28,46978,10.81,73814.8,0.47,-0.53,-0.49,0,*41
1507708899.48,46979,10.81,73802.8,0.47,-0.53,-0.49,0,*40
1507708900.68,46980,10.81,73800.8,0.47,-0.61,-0.41,0,*4F
1507708901.88,46981,10.81,73802.8,0.47,-0.53,-0.49,0,*47
1507708903.08,46982,10.81,73804.5,0.47,-0.49,-0.49,0,*4F
1507708904.26,46983,10.81,73800.3,0.45,-0.49,-0.41,0,*44
1507708905.46,46984,10.81,73800.5,0.47,-0.49,-0.49,0,*49
1507708906.65,46985,10.81,73788.8,0.47,-0.49,-0.49,0,*48
1507708907.86,46986,10.81,73802.5,0.47,-0.49,-0.41,0,*43
1507708909.06,46987,10.81,73806.3,0.47,-0.53,-0.49,0,*41
1507708910.24,46988,10.88,73808.3,0.45,-0.49,-0.41,0,*4F
1507708911.44,46989,10.81,73798.8,0.47,-0.41,-0.49,0,*4C
1507708912.65,46990,10.81,73804.0,0.47,-0.41,-0.41,0,*4C
1507708913.85,46991,10.81,73810.8,0.47,-0.49,-0.41,0,*45
1507708915.06,46992,10.81,73802.5,0.47,-0.41,-0.49,0,*46
1507708916.26,46993,10.81,73804.8,0.47,-0.41,-0.41,0,*4F
1507708917.47,46994,10.81,73812.0,0.47,-0.49,-0.41,0,*40
1507708918.66,46995,10.81,73808.8,0.47,-0.49,-0.49,0,*49
1507708919.87,46996,10.81,73810.5,0.47,-0.41,-0.41,0,*4A
1507708921.08,46997,10.81,73806.8,0.47,-0.41,-0.37,0,*4A
1507708922.28,46998,10.81,73800.8,0.47,-0.41,-0.37,0,*45
1507708923.49,46999,10.81,73798.8,0.47,-0.41,-0.37,0,*44
1507708924.69,47000,10.81,73798.8,0.47,-0.41,-0.37,0,*4C
1507708925.87,47001,10.81,73798.3,0.45,-0.41,-0.37,0,*4F
1507708927.08,47002,10.81,73790.0,0.47,-0.41,-0.41,0,*4F
1507708928.28,47003,10.81,73794.8,0.47,-0.49,-0.37,0,*47
1507708929.48,47004,10.81,73794.3,0.51,-0.37,-0.33,0,*4A
1507708930.7,47005,10.81,73792.3,0.51,-0.37,-0.27,0,*4E
1507708931.9,47006,10.81,73792.3,0.47,-0.49,-0.37,0,*42
1507708933.11,47007,10.81,73788.5,0.47,-0.41,-0.37,0,*4B
1507708934.32,47008,10.81,73786.5,0.47,-0.41,-0.41,0,*45
1507708935.52,47009,10.81,73782.0,0.47,-0.41,-0.37,0,*45
1507708936.73,47010,10.81,73790.0,0.47,-0.41,-0.37,0,*4D
1507708937.93,47011,10.81,73792.3,0.47,-0.49,-0.41,0,*45
1507708939.13,47012,10.81,73790.8,0.47,-0.49,-0.41,0,*46
1507708940.31,47013,10.81,73792.8,0.45,-0.49,-0.41,0,*45
1507708941.51,47014,10.88,73796.3,0.47,-0.41,-0.49,0,*40
1507708942.72,47015,10.88,73788.5,0.47,-0.41,-0.49,0,*41
1507708943.92,47016,10.81,73788.0,0.47,-0.49,-0.41,0,*42
1507708945.12,47017,10.81,73794.3,0.47,-0.53,-0.41,0,*48
1507708946.33,47018,10.88,73788.3,0.47,-0.49,-0.41,0,*4C
1507708947.53,47019,10.81,73778.5,0.47,-0.49,-0.41,0,*4D
1507708948.71,47020,10.81,73782.8,0.45,-0.41,-0.49,0,*45
1507708949.91,47021,10.81,73796.5,0.47,-0.41,-0.37,0,*4F
1507708951.11,47022,10.81,73794.0,0.51,-0.37,-0.33,0,*4E
1507708952.32,47023,10.81,73790.5,0.51,-0.37,-0.37,0,*4B
1507708953.52,47024,10.81,73792.0,0.47,-0.49,-0.41,0,*43
1507708954.73,47025,10.81,73798.3,0.47,-0.41,-0.41,0,*4A
1507708955.93,47026,10.81,73820.8,0.47,-0.49,-0.41,0,*41
1507708957.14,47027,10.81,73818.8,0.47,-0.41,-0.41,0,*48
1507708958.34,47028,10.81,73812.8,0.47,-0.49,-0.41,0,*4F
1507708959.54,47029,10.81,73804.8,0.47,-0.49,-0.37,0,*4F
1507708960.75,47030,10.81,73800.0,0.47,-0.41,-0.41,0,*4E
1507708961.95,47031,10.81,73796.5,0.47,-0.41,-0.49,0,*47
1507708963.15,47032,10.81,73792.0,0.47,-0.49,-0.41,0,*44
1507708964.35,47033,10.88,73794.0,0.47,-0.49,-0.41,0,*45
1507708965.56,47034,10.81,73788.5,0.51,-0.45,-0.37,0,*48
1507708966.76,47035,10.81,73784.8,0.47,-0.41,-0.49,0,*43
1507708967.96,47036,10.81,73780.0,0.47,-0.49,-0.41,0,*40
1507708969.16,47037,10.88,73794.3,0.47,-0.49,-0.49,0,*49
1507708970.36,47038,10.81,73808.3,0.47,-0.49,-0.41,0,*4E
1507708971.56,47039,10.88,73814.0,0.47,-0.49,-0.41,0,*4F
1507708972.77,47040,10.88,73806.0,0.47,-0.53,-0.49,0,*42
1507708973.96,47041,10.88,73806.8,0.51,-0.49,-0.45,0,*43
1507708975.16,47042,10.88,73806.0,0.51,-0.49,-0.45,0,*40
1507708976.35,47043,10.81,73810.3,0.51,-0.37,-0.45,0,*48
1507708977.55,47044,10.88,73820.5,0.51,-0.45,-0.37,0,*4F
1507708978.76,47045,10.81,73814.3,0.47,-0.49,-0.41,0,*44
1507708979.96,47046,10.88,73812.3,0.47,-0.49,-0.49,0,*4F
1507708981.16,47047,10.88,73814.5,0.47,-0.49,-0.41,0,*46
1507708982.36,47048,10.81,73808.3,0.51,-0.45,-0.37,0,*43
1507708983.53,47049,10.88,73814.3,0.53,-0.45,-0.37,0,*40
1507708984.7,47050,10.88,73816.5,0.53,-0.37,-0.33,0,*49
1507708985.91,47051,10.88,73814.0,0.47,-0.41,-0.41,0,*49
1507708987.11,47052,10.88,73808.3,0.47,-0.41,-0.49,0,*42
1507708988.32,47053,10.81,73808.5,0.47,-0.41,-0.41,0,*4B
1507708989.52,47054,10.88,73804.3,0.51,-0.37,-0.33,0,*4F
1507708990.72,47055,10.81,73804.0,0.51,-0.45,-0.33,0,*4B
1507708991.92,47056,10.88,73810.5,0.51,-0.37,-0.45,0,*4C
1507708993.12,47057,10.88,73804.8,0.51,-0.37,-0.33,0,*4C
1507708994.32,47058,10.88,73804.8,0.47,-0.41,-0.37,0,*41
1507708995.52,47059,10.88,73800.8,0.51,-0.45,-0.33,0,*47
1507708996.69,47060,10.88,73796.3,0.53,-0.45,-0.37,0,*4B
1507708997.89,47061,10.88,73796.5,0.51,-0.33,-0.37,0,*49
1507708999.09,47062,10.88,73804.3,0.51,-0.45,-0.33,0,*4F
1507709000.29,47063,10.81,73800.3,0.51,-0.37,-0.33,0,*4B
1507709001.49,47064,10.88,73804.0,0.51,-0.33,-0.33,0,*48
1507709002.69,47065,10.88,73806.3,0.51,-0.37,-0.33,0,*4D
1507709003.89,47066,10.88,73804.5,0.51,-0.37,-0.33,0,*4E
1507709005.09,47067,10.88,73800.3,0.51,-0.37,-0.33,0,*4F
1507709006.29,47068,10.88,73796.0,0.51,-0.37,-0.33,0,*40
1507709007.49,47069,10.88,73796.0,0.51,-0.33,-0.33,0,*45
1507709008.71,47070,10.88,73794.5,0.51,-0.37,-0.27,0,*4C
1507709009.9,47071,10.88,73794.8,0.51,-0.33,-0.33,0,*4C
1507709011.09,47072,10.88,73798.8,0.53,-0.37,-0.27,0,*4C
1507709012.32,47073,10.88,73798.5,0.51,-0.37,-0.27,0,*4F
1507709013.53,47074,10.81,73796.8,0.51,-0.33,-0.27,0,*4C
1507709014.73,47075,10.88,73806.8,0.51,-0.33,-0.33,0,*48
1507709015.93,47076,10.88,73804.0,0.51,-0.33,-0.33,0,*4B
1507709017.12,47077,10.88,73808.0,0.51,-0.33,-0.33,0,*4A
1507709018.31,47078,10.88,73810.0,0.53,-0.33,-0.27,0,*42
1507709019.48,47079,10.81,73796.0,0.53,-0.33,-0.33,0,*46
1507709020.67,47080,10.88,73798.8,0.53,-0.33,-0.27,0,*45
1507709021.88,47081,10.81,73788.8,0.51,-0.33,-0.27,0,*46
1507709023.1,47082,10.88,73790.3,0.51,-0.37,-0.27,0,*41
1507709024.27,47083,10.88,73790.3,0.53,-0.33,-0.33,0,*43
1507709025.47,47084,10.88,73786.3,0.51,-0.37,-0.33,0,*42
1507709026.67,47085,10.88,73784.0,0.53,-0.27,-0.33,0,*40
1507709027.87,47086,10.88,73784.3,0.51,-0.45,-0.37,0,*41
1507709029.04,47087,10.88,73788.3,0.53,-0.37,-0.33,0,*43
1507709030.2,47088,10.88,73792.8,0.53,-0.45,-0.45,0,*48
1507709031.37,47089,10.88,73798.0,0.53,-0.49,-0.45,0,*45
1507709032.53,47090,10.88,73804.3,0.53,-0.49,-0.45,0,*4D
1507709033.71,47091,10.88,73804.3,0.53,-0.37,-0.37,0,*40
1507709034.9,47092,10.88,73806.8,0.51,-0.45,-0.45,0,*41
1507709036.07,47093,10.88,73810.5,0.53,-0.33,-0.37,0,*46
1507709037.27,47094,10.88,73812.5,0.51,-0.37,-0.37,0,*47
1507709038.44,47095,10.88,73808.5,0.53,-0.45,-0.37,0,*41
1507709039.64,47096,10.88,73812.5,0.51,-0.37,-0.37,0,*45
1507709040.84,47097,10.88,73808.5,0.51,-0.37,-0.33,0,*40
1507709042.04,47098,10.81,73808.0,0.51,-0.37,-0.37,0,*4B
1507709043.24,47099,10.88,73812.5,0.51,-0.45,-0.37,0,*4F
1507709044.44,47100,10.88,73808.8,0.51,-0.45,-0.45,0,*4B
1507709045.63,47101,10.88,73810.5,0.53,-0.45,-0.27,0,*4C
1507709046.83,47102,10.88,73810.8,0.51,-0.37,-0.45,0,*4C
1507709048.0,47103,10.88,73810.5,0.53,-0.37,-0.45,0,*4F
1507709049.17,47104,10.88,73810.3,0.53,-0.37,-0.33,0,*49
1507709050.34,47105,10.88,73812.0,0.53,-0.33,-0.37,0,*48
1507709051.51,47106,10.88,73812.8,0.53,-0.37,-0.37,0,*4F
1507709052.68,47107,10.88,73814.3,0.53,-0.37,-0.33,0,*4A
1507709053.85,47108,10.88,73816.3,0.53,-0.37,-0.37,0,*41
1507709055.02,47109,10.88,73816.5,0.53,-0.37,-0.37,0,*40
1507709056.22,47110,10.88,73822.5,0.51,-0.45,-0.37,0,*4F
1507709057.42,47111,10.81,73824.5,0.51,-0.45,-0.33,0,*4A
1507709058.59,47112,10.88,73830.3,0.53,-0.37,-0.33,0,*4E
1507709059.79,47113,10.88,73832.3,0.51,-0.37,-0.37,0,*49
1507709060.96,47114,10.88,73832.5,0.53,-0.37,-0.33,0,*48
1507709062.13,47115,10.88,73830.5,0.53,-0.45,-0.33,0,*4C
1507709063.3,47116,10.88,73828.8,0.53,-0.37,-0.33,0,*4A
1507709064.47,47117,10.88,73830.8,0.53,-0.37,-0.37,0,*4F
1507709065.64,47118,10.88,73828.0,0.53,-0.49,-0.45,0,*4C
1507709066.81,47119,10.88,73824.8,0.53,-0.45,-0.37,0,*44
1507709067.98,47120,10.88,73820.5,0.53,-0.45,-0.37,0,*4E
1507709069.18,47121,10.88,73820.3,0.51,-0.45,-0.45,0,*48
1507709070.35,47122,10.88,73824.0,0.53,-0.45,-0.45,0,*49
1507709071.55,47123,10.88,73822.0,0.51,-0.37,-0.37,0,*4A
1507709072.72,47124,10.88,73824.0,0.53,-0.37,-0.37,0,*4F
1507709073.89,47125,10.88,73830.8,0.53,-0.45,-0.37,0,*4B
1507709075.06,47126,10.88,73820.8,0.53,-0.45,-0.45,0,*4D
1507709076.23,47127,10.88,73816.3,0.53,-0.37,-0.37,0,*4C
1507709077.4,47128,10.88,73816.8,0.53,-0.37,-0.37,0,*43
1507709078.57,47129,10.88,73810.5,0.53,-0.45,-0.33,0,*43
1507709079.74,47130,10.88,73808.3,0.53,-0.37,-0.45,0,*4F
1507709080.91,47131,10.88,73806.8,0.53,-0.45,-0.37,0,*4E
1507709082.07,47132,10.88,73798.0,0.53,-0.45,-0.45,0,*48
1507709083.24,47133,10.81,73790.8,0.53,-0.45,-0.45,0,*49
1507709084.41,47134,10.88,73782.0,0.53,-0.57,-0.49,0,*41
1507709085.57,47135,10.88,73782.8,0.53,-0.61,-0.57,0,*4A
1507709086.74,47136,10.88,73770.8,0.53,-0.61,-0.57,0,*49
1507709087.9,47137,10.88,73740.0,0.53,-0.61,-0.69,0,*45
1507709089.05,47138,10.88,73738.5,0.53,-0.61,-0.61,0,*42
1507709090.22,47139,10.88,73732.3,0.53,-0.69,-0.61,0,*4B
1507709091.39,47140,10.88,73752.5,0.53,-0.69,-0.69,0,*4D
1507709092.56,47141,10.88,73782.8,0.53,-0.69,-0.49,0,*4E
1507709093.73,47142,10.88,73786.3,0.53,-0.57,-0.49,0,*40
1507709094.9,47143,10.88,73786.0,0.53,-0.57,-0.49,0,*41
1507709096.1,47144,10.88,73786.8,0.51,-0.49,-0.49,0,*4B
1507709097.27,47145,10.88,73784.8,0.53,-0.49,-0.45,0,*44
1507709098.43,47146,10.88,73784.3,0.53,-0.49,-0.45,0,*47
1507709099.59,47147,10.88,73790.5,0.53,-0.49,-0.45,0,*46
1507709100.76,47148,10.88,73794.0,0.53,-0.49,-0.37,0,*4C
1507709101.93,47149,10.88,73792.0,0.53,-0.49,-0.57,0,*4B
1507709103.1,47150,10.88,73794.5,0.53,-0.49,-0.49,0,*4C
1507709104.26,47151,10.88,73796.5,0.53,-0.45,-0.45,0,*4D
1507709105.43,47152,10.88,73796.3,0.53,-0.45,-0.37,0,*4B
1507709106.6,47153,10.88,73810.3,0.53,-0.45,-0.45,0,*4F
1507709107.77,47154,10.88,73806.3,0.53,-0.45,-0.49,0,*44
1507709108.94,47155,10.88,73804.5,0.53,-0.57,-0.45,0,*4A
1507709110.11,47156,10.88,73810.8,0.53,-0.49,-0.45,0,*46
1507709111.27,47157,10.88,73810.0,0.53,-0.49,-0.37,0,*42
1507709112.44,47158,10.88,73812.8,0.53,-0.49,-0.45,0,*48
1507709113.61,47159,10.88,73818.5,0.53,-0.49,-0.49,0,*45
1507709114.78,47160,10.88,73824.5,0.53,-0.49,-0.49,0,*4F
1507709115.97,47161,10.88,73810.8,0.55,-0.45,-0.45,0,*48
1507709117.14,47162,10.88,73816.0,0.53,-0.49,-0.49,0,*4D
1507709118.34,47163,10.88,73816.0,0.55,-0.41,-0.33,0,*4F
1507709119.54,47164,10.88,73822.0,0.55,-0.41,-0.41,0,*4D
1507709120.75,47165,10.88,73816.8,0.55,-0.41,-0.41,0,*4C
1507709121.91,47166,10.88,73822.3,0.53,-0.49,-0.45,0,*45
1507709123.08,47167,10.88,73820.3,0.53,-0.45,-0.37,0,*4D
1507709124.25,47168,10.88,73816.8,0.53,-0.49,-0.37,0,*4E
1507709125.42,47169,10.88,73816.5,0.53,-0.45,-0.45,0,*46
1507709126.62,47170,10.88,73812.0,0.51,-0.37,-0.45,0,*49
1507709127.79,47171,10.88,73818.8,0.53,-0.45,-0.45,0,*4F
1507709128.96,47172,10.88,73826.3,0.53,-0.45,-0.37,0,*49
1507709130.13,47173,10.88,73820.8,0.53,-0.37,-0.37,0,*4D
1507709131.3,47174,10.88,73830.5,0.53,-0.45,-0.37,0,*4F
1507709132.47,47175,10.88,73830.8,0.53,-0.45,-0.37,0,*4E
1507709133.64,47176,10.88,73834.8,0.53,-0.45,-0.37,0,*4D
1507709134.81,47177,10.88,73816.0,0.53,-0.45,-0.45,0,*49
1507709135.97,47178,10.88,73814.3,0.53,-0.37,-0.45,0,*43
1507709137.14,47179,10.88,73826.3,0.53,-0.37,-0.37,0,*47
1507709138.31,47180,10.88,73828.5,0.53,-0.45,-0.45,0,*41
1507709139.48,47181,10.88,73820.8,0.53,-0.45,-0.37,0,*45
1507709140.68,47182,10.88,73818.5,0.51,-0.37,-0.33,0,*45
1507709141.85,47183,10.88,73820.8,0.53,-0.37,-0.33,0,*46
1507709143.02,47184,10.88,73814.8,0.53,-0.37,-0.33,0,*41
1507709144.2,47185,10.88,73818.3,0.53,-0.37,-0.33,0,*40
1507709145.38,47186,10.88,73816.0,0.55,-0.33,-0.29,0,*4A
1507709146.57,47187,10.88,73816.8,0.55,-0.33,-0.29,0,*4B
1507709147.76,47188,10.88,73812.3,0.55,-0.41,-0.29,0,*41
1507709148.97,47189,10.88,73812.8,0.55,-0.41,-0.33,0,*4B
1507709150.14,47190,10.88,73804.0,0.53,-0.45,-0.37,0,*45
1507709151.31,47191,10.88,73802.8,0.53,-0.37,-0.37,0,*41
1507709152.5,47192,10.88,73806.0,0.55,-0.33,-0.29,0,*4F
1507709153.69,47193,10.88,73814.5,0.55,-0.33,-0.41,0,*40
1507709154.89,47194,10.88,73822.3,0.55,-0.41,-0.29,0,*4C
1507709156.09,47195,10.88,73822.8,0.55,-0.41,-0.33,0,*46
1507709157.29,47196,10.88,73824.3,0.55,-0.33,-0.41,0,*45
1507709158.49,47197,10.88,73826.0,0.55,-0.41,-0.41,0,*41
1507709159.68,47198,10.88,73822.8,0.55,-0.33,-0.33,0,*4E
1507709160.88,47199,10.88,73814.3,0.55,-0.33,-0.33,0,*4F
1507709162.05,47200,10.88,73816.5,0.53,-0.37,-0.45,0,*4F
1507709163.22,47201,10.88,73814.0,0.53,-0.37,-0.37,0,*4B
1507709164.39,47202,10.88,73808.3,0.53,-0.45,-0.37,0,*4D
1507709165.56,47203,10.88,73794.5,0.53,-0.37,-0.37,0,*49
1507709166.76,47204,10.88,73800.0,0.55,-0.41,-0.33,0,*4D
1507709167.96,47205,10.88,73792.5,0.55,-0.41,-0.33,0,*4C
1507709169.16,47206,10.88,73802.8,0.55,-0.41,-0.33,0,*4F
1507709170.33,47207,10.88,73810.8,0.53,-0.37,-0.45,0,*48
1507709171.5,47208,10.88,73818.3,0.53,-0.37,-0.45,0,*47
1507709172.66,47209,10.88,73818.3,0.53,-0.33,-0.33,0,*43
1507709173.84,47210,10.88,73822.8,0.53,-0.37,-0.33,0,*4F
1507709175.01,47211,10.88,73830.3,0.53,-0.37,-0.33,0,*4E
1507709176.2,47212,10.88,73830.3,0.55,-0.41,-0.29,0,*41
1507709177.39,47213,10.88,73828.5,0.55,-0.33,-0.29,0,*45
1507709178.58,47214,10.88,73834.8,0.55,-0.41,-0.29,0,*47
1507709179.77,47215,10.88,73832.5,0.55,-0.29,-0.29,0,*48
1507709180.94,47216,10.88,73826.8,0.57,-0.33,-0.33,0,*49
1507709182.13,47217,10.88,73832.3,0.55,-0.33,-0.41,0,*4F
1507709183.3,47218,10.88,73824.5,0.53,-0.37,-0.45,0,*46
1507709184.5,47219,10.88,73828.8,0.55,-0.41,-0.33,0,*41
1507709185.69,47220,10.88,73824.0,0.55,-0.33,-0.29,0,*45
1507709186.89,47221,10.88,73818.3,0.55,-0.33,-0.41,0,*4A
1507709188.08,47222,10.88,73816.0,0.55,-0.33,-0.33,0,*4C
1507709189.25,47223,10.88,73810.0,0.57,-0.33,-0.41,0,*4A
1507709190.46,47224,10.88,73806.3,0.55,-0.45,-0.41,0,*4E
1507709191.65,47225,10.88,73792.3,0.55,-0.45,-0.33,0,*4A
1507709192.85,47226,10.88,73798.0,0.55,-0.45,-0.33,0,*49
1507709194.05,47227,10.88,73802.5,0.55,-0.41,-0.41,0,*49
1507709195.25,47228,10.88,73800.8,0.55,-0.53,-0.45,0,*41
1507709196.44,47229,10.88,73810.5,0.55,-0.45,-0.33,0,*46
1507709197.64,47230,10.88,73810.3,0.55,-0.57,-0.53,0,*4B
1507709198.84,47231,10.88,73816.8,0.55,-0.45,-0.41,0,*4A
1507709200.04,47232,10.88,73812.0,0.55,-0.41,-0.41,0,*4D
1507709201.22,47233,10.88,73812.5,0.57,-0.41,-0.41,0,*4E
1507709202.39,47234,10.88,73812.3,0.57,-0.45,-0.33,0,*48
1507709203.6,47235,10.88,73818.8,0.55,-0.41,-0.41,0,*4A
1507709204.8,47236,10.88,73822.3,0.55,-0.45,-0.41,0,*4D
1507709205.99,47237,10.88,73828.5,0.55,-0.45,-0.45,0,*48
1507709207.19,47238,10.88,73834.0,0.55,-0.45,-0.41,0,*43
1507709208.39,47239,10.88,73830.8,0.55,-0.45,-0.41,0,*42
1507709209.59,47240,10.88,73826.8,0.55,-0.41,-0.33,0,*4D
1507709210.8,47241,10.88,73820.8,0.55,-0.41,-0.41,0,*49
1507709211.99,47242,10.88,73818.0,0.55,-0.33,-0.29,0,*41
1507709213.15,47243,10.88,73818.5,0.57,-0.33,-0.33,0,*49
1507709214.34,47244,10.88,73816.0,0.55,-0.33,-0.29,0,*47
1507709215.5,47245,10.88,73810.5,0.57,-0.33,-0.29,0,*44
1507709216.7,47246,10.88,73798.3,0.55,-0.33,-0.33,0,*4E
1507709217.88,47247,10.88,73790.5,0.55,-0.33,-0.29,0,*44
1507709219.05,47248,10.88,73788.3,0.57,-0.33,-0.29,0,*49
1507709220.23,47249,10.88,73796.0,0.55,-0.29,-0.29,0,*41
1507709221.41,47250,10.88,73794.8,0.57,-0.41,-0.33,0,*4E
1507709222.61,47251,10.88,73810.3,0.55,-0.41,-0.33,0,*4D
1507709223.77,47252,10.88,73814.5,0.57,-0.33,-0.29,0,*42
1507709224.98,47253,10.88,73818.8,0.55,-0.29,-0.23,0,*40
1507709226.14,47254,10.88,73820.3,0.57,-0.29,-0.29,0,*4F
1507709227.33,47255,10.88,73822.5,0.55,-0.29,-0.29,0,*4C
1507709228.49,47256,10.88,73808.8,0.57,-0.29,-0.29,0,*4D
1507709229.66,47257,10.88,73808.8,0.57,-0.29,-0.33,0,*47
1507709230.81,47258,10.88,73812.8,0.57,-0.29,-0.29,0,*43
1507709231.98,47259,10.88,73818.0,0.57,-0.33,-0.29,0,*49
1507709233.16,47260,10.88,73816.3,0.55,-0.33,-0.29,0,*41
1507709234.35,47261,10.88,73818.8,0.57,-0.33,-0.23,0,*48
1507709235.54,47262,10.88,73816.8,0.57,-0.33,-0.23,0,*4B
1507709236.72,47263,10.88,73826.5,0.57,-0.29,-0.23,0,*41
1507709237.94,47264,10.88,73822.8,0.55,-0.29,-0.23,0,*44
1507709239.1,47265,10.88,73820.5,0.57,-0.29,-0.29,0,*4D
1507709240.32,47266,10.88,73826.5,0.59,-0.19,-0.27,0,*4D
1507709241.53,47267,10.88,73820.0,0.59,-0.29,-0.27,0,*4F
1507709242.7,47268,10.88,73810.8,0.57,-0.41,-0.29,0,*4E
1507709243.87,47269,10.88,73814.0,0.57,-0.33,-0.41,0,*44
1507709245.04,47270,10.88,73814.0,0.57,-0.41,-0.33,0,*4C
1507709246.2,47271,10.88,73812.8,0.57,-0.29,-0.29,0,*48
1507709247.39,47272,10.88,73814.5,0.57,-0.23,-0.29,0,*41
1507709248.58,47273,10.88,73808.3,0.57,-0.29,-0.23,0,*40
1507709249.76,47274,10.88,73810.8,0.57,-0.23,-0.29,0,*47
1507709250.95,47275,10.88,73812.8,0.57,-0.29,-0.23,0,*46
1507709252.14,47276,10.88,73818.5,0.57,-0.29,-0.23,0,*45
1507709253.32,47277,10.88,73826.3,0.57,-0.29,-0.23,0,*44
1507709254.48,47278,10.88,73826.5,0.57,-0.29,-0.29,0,*41
1507709255.64,47279,10.88,73814.3,0.57,-0.33,-0.29,0,*4B
1507709256.8,47280,10.88,73810.3,0.57,-0.33,-0.29,0,*4D
1507709257.96,47281,10.88,73818.8,0.57,-0.33,-0.29,0,*4C
1507709259.18,47282,10.88,73822.5,0.59,-0.29,-0.27,0,*44
1507709260.42,47283,10.88,73820.5,0.59,-0.27,-0.27,0,*4B
1507709261.66,47284,10.88,73822.3,0.59,-0.27,-0.27,0,*4C
1507709262.9,47285,10.88,73806.8,0.59,-0.27,-0.27,0,*4D
1507709264.12,47286,10.88,73798.3,0.59,-0.29,-0.27,0,*40
1507709265.33,47287,10.88,73784.8,0.59,-0.29,-0.27,0,*41
1507709266.52,47288,10.88,73774.8,0.59,-0.37,-0.29,0,*4F
1507709267.71,47289,10.88,73772.3,0.59,-0.37,-0.29,0,*4E
1507709268.93,47290,10.88,73774.5,0.59,-0.37,-0.27,0,*48
1507709270.1,47291,10.88,73772.8,0.57,-0.41,-0.33,0,*43
1507709271.28,47292,10.88,73780.8,0.57,-0.41,-0.41,0,*45
1507709272.47,47293,10.88,73794.5,0.59,-0.49,-0.29,0,*4C
1507709273.66,47294,10.88,73798.3,0.61,-0.37,-0.27,0,*47
1507709274.85,47295,10.88,73796.5,0.59,-0.37,-0.29,0,*43
1507709276.04,47296,10.88,73794.8,0.59,-0.37,-0.29,0,*40
1507709277.24,47297,10.88,73784.8,0.59,-0.29,-0.37,0,*41
1507709278.43,47298,10.88,73794.3,0.59,-0.29,-0.37,0,*4E
1507709279.63,47299,10.88,73796.0,0.59,-0.37,-0.37,0,*40
1507709280.82,47300,10.88,73796.3,0.59,-0.29,-0.29,0,*41
1507709282.01,47301,10.88,73788.3,0.61,-0.27,-0.33,0,*4E
1507709283.21,47302,10.88,73792.5,0.59,-0.37,-0.37,0,*43
1507709284.43,47303,10.88,73796.3,0.59,-0.37,-0.27,0,*43
1507709285.62,47304,10.88,73804.8,0.59,-0.41,-0.29,0,*4B
1507709286.84,47305,10.88,73802.0,0.61,-0.27,-0.27,0,*4F
1507709288.04,47306,10.88,73808.5,0.59,-0.37,-0.37,0,*47
1507709289.24,47307,10.88,73810.5,0.59,-0.29,-0.41,0,*48
1507709290.44,47308,10.88,73810.3,0.59,-0.37,-0.41,0,*48
1507709291.63,47309,10.88,73812.0,0.59,-0.37,-0.37,0,*48
1507709292.8,47310,10.88,73808.8,0.57,-0.45,-0.33,0,*4F
1507709293.97,47311,10.88,73814.5,0.57,-0.45,-0.33,0,*4E
1507709295.15,47312,10.88,73812.8,0.57,-0.41,-0.41,0,*4C
1507709296.34,47313,10.88,73802.0,0.59,-0.29,-0.29,0,*43
1507709297.53,47314,10.88,73804.0,0.59,-0.37,-0.29,0,*4B
1507709298.73,47315,10.88,73810.8,0.59,-0.37,-0.37,0,*45
1507709299.92,47316,10.88,73812.0,0.59,-0.37,-0.37,0,*46